Time,TemperatureF,DewpointF,PressureIn,WindDirection,WindDirectionDegrees,WindSpeedMPH,WindSpeedGustMPH,Humidity,HourlyPrecipIn,Conditions,Clouds,dailyrainin,SoftwareType,DateUTC
2013-01-08 00:02:00,47.0,21.0,30.10,NE,50,8.0,14.0,35,0.00,,,0.00,,2013-01-07 22:02:00,
2013-01-08 00:12:00,47.0,21.0,30.10,NE,50,8.0,14.0,35,0.00,,,0.00,,2013-01-07 22:12:00,
2013-01-08 00:22:00,46.0,20.0,30.10,NE,35,9.0,13.0,35,0.00,,,0.00,,2013-01-07 22:22:00,
2013-01-08 00:33:00,46.0,18.0,30.11,North,356,7.0,14.0,32,0.00,,,0.00,,2013-01-07 22:33:00,
2013-01-08 00:42:00,46.0,18.0,30.11,North,356,7.0,14.0,32,0.00,,,0.00,,2013-01-07 22:42:00,
2013-01-08 00:52:00,46.0,17.0,30.11,ENE,75,7.0,14.0,31,0.00,,,0.00,,2013-01-07 22:52:00,
2013-01-08 01:02:00,46.0,17.0,30.12,NNE,30,5.0,10.0,31,0.00,,,0.00,,2013-01-07 23:02:00,
2013-01-08 01:12:00,46.0,17.0,30.12,NNE,30,5.0,10.0,31,0.00,,,0.00,,2013-01-07 23:12:00,
2013-01-08 01:22:00,46.0,17.0,30.13,ENE,64,3.0,7.0,31,0.00,,,0.00,,2013-01-07 23:22:00,
2013-01-08 01:32:00,46.0,19.0,30.13,North,10,5.0,12.0,33,0.00,,,0.00,,2013-01-07 23:32:00,
2013-01-08 01:42:00,46.0,19.0,30.13,North,10,5.0,12.0,33,0.00,,,0.00,,2013-01-07 23:42:00,
2013-01-08 01:52:00,46.0,17.0,30.13,WNW,295,4.0,11.0,31,0.00,,,0.00,,2013-01-07 23:52:00,
2013-01-08 02:02:00,46.0,18.0,30.14,NE,34,5.0,14.0,32,0.00,,,0.00,,2013-01-08 00:02:00,
2013-01-08 02:12:00,46.0,18.0,30.14,NE,34,5.0,14.0,32,0.00,,,0.00,,2013-01-08 00:12:00,
2013-01-08 02:22:00,45.0,20.0,30.14,NE,52,7.0,14.0,37,0.00,,,0.00,,2013-01-08 00:22:00,
2013-01-08 02:32:00,45.0,24.0,30.15,NNW,337,6.0,12.0,43,0.00,,,0.00,,2013-01-08 00:32:00,
2013-01-08 02:42:00,45.0,24.0,30.15,NNW,337,6.0,12.0,43,0.00,,,0.00,,2013-01-08 00:42:00,
2013-01-08 02:52:00,44.0,28.0,30.16,North,6,5.0,9.0,53,0.00,,,0.00,,2013-01-08 00:52:00,
2013-01-08 03:02:00,44.0,29.0,30.16,ENE,58,5.0,8.0,55,0.00,,,0.00,,2013-01-08 01:02:00,
2013-01-08 03:12:00,44.0,29.0,30.16,ENE,58,5.0,8.0,55,0.00,,,0.00,,2013-01-08 01:12:00,
2013-01-08 03:22:00,43.0,29.0,30.17,ENE,57,7.0,9.0,58,0.00,,,0.00,,2013-01-08 01:22:00,
2013-01-08 03:32:00,43.0,30.0,30.18,ENE,69,8.0,14.0,61,0.00,,,0.00,,2013-01-08 01:32:00,
2013-01-08 03:42:00,43.0,30.0,30.18,ENE,69,8.0,14.0,61,0.00,,,0.00,,2013-01-08 01:42:00,
2013-01-08 03:52:00,42.0,31.0,30.19,North,8,7.0,12.0,65,0.00,,,0.00,,2013-01-08 01:52:00,
2013-01-08 04:02:00,42.0,32.0,30.19,NNE,21,7.0,11.0,67,0.00,,,0.00,,2013-01-08 02:02:00,
2013-01-08 04:12:00,42.0,32.0,30.19,NNE,21,7.0,11.0,67,0.00,,,0.00,,2013-01-08 02:12:00,
2013-01-08 04:22:00,41.0,32.0,30.19,NNE,24,8.0,15.0,69,0.00,,,0.00,,2013-01-08 02:22:00,
2013-01-08 04:32:00,41.0,32.0,30.19,ESE,116,6.0,7.0,71,0.00,,,0.00,,2013-01-08 02:32:00,
2013-01-08 04:42:00,41.0,32.0,30.19,ESE,116,6.0,7.0,71,0.00,,,0.00,,2013-01-08 02:42:00,
2013-01-08 04:52:00,40.0,32.0,30.20,NNE,12,10.0,16.0,74,0.00,,,0.00,,2013-01-08 02:52:00,
2013-01-08 05:02:00,39.0,34.0,30.20,NE,45,10.0,19.0,83,0.00,,,0.00,,2013-01-08 03:02:00,
2013-01-08 05:12:00,39.0,34.0,30.20,NE,45,10.0,19.0,83,0.00,,,0.00,,2013-01-08 03:12:00,
2013-01-08 05:22:00,38.0,34.0,30.19,NE,41,10.0,15.0,86,0.00,,,0.00,,2013-01-08 03:22:00,
2013-01-08 05:32:00,38.0,34.0,30.19,North,10,9.0,14.0,85,0.00,,,0.00,,2013-01-08 03:32:00,
2013-01-08 05:42:00,38.0,34.0,30.19,North,10,9.0,14.0,85,0.00,,,0.00,,2013-01-08 03:42:00,
2013-01-08 05:52:00,39.0,34.0,30.20,NNE,31,6.0,11.0,83,0.00,,,0.00,,2013-01-08 03:52:00,
2013-01-08 06:02:00,38.0,33.0,30.21,North,5,9.0,19.0,82,0.00,,,0.00,,2013-01-08 04:02:00,
2013-01-08 06:12:00,38.0,33.0,30.21,North,5,9.0,19.0,82,0.00,,,0.00,,2013-01-08 04:12:00,
2013-01-08 06:22:00,38.0,33.0,30.22,NE,52,7.0,12.0,81,0.00,,,0.00,,2013-01-08 04:22:00,
2013-01-08 06:32:00,37.0,32.0,30.22,NNE,17,7.0,14.0,83,0.00,,,0.00,,2013-01-08 04:32:00,
2013-01-08 06:42:00,37.0,32.0,30.22,NNE,17,7.0,14.0,83,0.00,,,0.00,,2013-01-08 04:42:00,
2013-01-08 06:52:00,37.0,34.0,30.22,NNE,27,5.0,12.0,88,0.00,,,0.00,,2013-01-08 04:52:00,
2013-01-08 07:03:00,38.0,34.0,30.23,NNE,19,5.0,9.0,86,0.00,,,0.00,,2013-01-08 05:03:00,
2013-01-08 07:12:00,38.0,34.0,30.23,NNE,19,5.0,9.0,86,0.00,,,0.00,,2013-01-08 05:12:00,
2013-01-08 07:22:00,38.0,34.0,30.23,NNE,17,5.0,9.0,85,0.00,,,0.00,,2013-01-08 05:22:00,
2013-01-08 07:33:00,38.0,34.0,30.23,NE,39,5.0,10.0,85,0.00,,,0.00,,2013-01-08 05:33:00,
2013-01-08 07:42:00,38.0,34.0,30.23,NE,39,5.0,10.0,85,0.00,,,0.00,,2013-01-08 05:42:00,
2013-01-08 07:52:00,38.0,33.0,30.24,NNE,30,8.0,12.0,83,0.00,,,0.00,,2013-01-08 05:52:00,
2013-01-08 08:02:00,38.0,33.0,30.24,NE,54,8.0,17.0,83,0.00,,,0.00,,2013-01-08 06:02:00,
2013-01-08 08:12:00,38.0,33.0,30.24,NE,54,8.0,17.0,83,0.00,,,0.00,,2013-01-08 06:12:00,
2013-01-08 08:22:00,37.0,33.0,30.25,NNE,32,8.0,20.0,85,0.00,,,0.00,,2013-01-08 06:22:00,
2013-01-08 08:32:00,38.0,34.0,30.25,NNE,23,6.0,9.0,84,0.00,,,0.00,,2013-01-08 06:32:00,
2013-01-08 08:42:00,38.0,34.0,30.25,NNE,23,6.0,9.0,84,0.00,,,0.00,,2013-01-08 06:42:00,
2013-01-08 08:52:00,38.0,33.0,30.26,NNE,14,8.0,15.0,82,0.00,,,0.00,,2013-01-08 06:52:00,
2013-01-08 09:02:00,38.0,34.0,30.27,NNE,20,5.0,10.0,85,0.00,,,0.00,,2013-01-08 07:02:00,
2013-01-08 09:11:00,38.0,34.0,30.27,NNE,20,5.0,10.0,85,0.00,,,0.00,,2013-01-08 07:11:00,
2013-01-08 09:22:00,37.0,33.0,30.27,NNE,26,6.0,10.0,85,0.00,,,0.00,,2013-01-08 07:22:00,
2013-01-08 09:32:00,38.0,34.0,30.28,NNE,31,7.0,13.0,85,0.00,,,0.00,,2013-01-08 07:32:00,
2013-01-08 09:42:00,38.0,34.0,30.28,NNE,31,7.0,13.0,85,0.00,,,0.00,,2013-01-08 07:42:00,
2013-01-08 09:52:00,38.0,32.0,30.28,NNE,19,7.0,15.0,79,0.00,,,0.00,,2013-01-08 07:52:00,
2013-01-08 10:02:00,36.0,31.0,30.28,NE,43,8.0,12.0,82,0.00,,,0.00,,2013-01-08 08:02:00,
2013-01-08 10:12:00,36.0,31.0,30.28,NE,43,8.0,12.0,82,0.00,,,0.00,,2013-01-08 08:12:00,
2013-01-08 10:22:00,38.0,34.0,30.29,NNW,329,5.0,9.0,86,0.00,,,0.00,,2013-01-08 08:22:00,
2013-01-08 10:32:00,43.0,36.0,30.29,SW,230,4.0,5.0,76,0.00,,,0.00,,2013-01-08 08:32:00,
2013-01-08 10:42:00,43.0,36.0,30.29,SW,230,4.0,5.0,76,0.00,,,0.00,,2013-01-08 08:42:00,
2013-01-08 10:52:00,43.0,36.0,30.29,South,187,4.0,7.0,75,0.00,,,0.00,,2013-01-08 08:52:00,
2013-01-08 11:02:00,43.0,36.0,30.29,South,187,4.0,7.0,75,0.00,,,0.00,,2013-01-08 09:02:00,
2013-01-08 11:11:00,43.0,36.0,30.29,South,187,4.0,7.0,75,0.00,,,0.00,,2013-01-08 09:11:00,
2013-01-08 11:22:00,43.0,36.0,30.29,South,187,4.0,7.0,75,0.00,,,0.00,,2013-01-08 09:22:00,
2013-01-08 11:32:00,43.0,36.0,30.29,South,187,4.0,7.0,75,0.00,,,0.00,,2013-01-08 09:32:00,
2013-01-08 11:42:00,43.0,36.0,30.29,South,187,4.0,7.0,75,0.00,,,0.00,,2013-01-08 09:42:00,
2013-01-08 11:52:00,43.0,36.0,30.29,South,187,4.0,7.0,75,0.00,,,0.00,,2013-01-08 09:52:00,
2013-01-08 12:02:00,43.0,36.0,30.29,South,187,4.0,7.0,75,0.00,,,0.00,,2013-01-08 10:02:00,
2013-01-08 12:11:00,43.0,36.0,30.29,South,187,4.0,7.0,75,0.00,,,0.00,,2013-01-08 10:11:00,
2013-01-08 12:22:00,43.0,36.0,30.29,South,187,4.0,7.0,75,0.00,,,0.00,,2013-01-08 10:22:00,
2013-01-08 12:32:00,43.0,36.0,30.29,South,187,4.0,7.0,75,0.00,,,0.00,,2013-01-08 10:32:00,
2013-01-08 12:42:00,43.0,36.0,30.29,South,187,4.0,7.0,75,0.00,,,0.00,,2013-01-08 10:42:00,
2013-01-08 12:52:00,43.0,36.0,30.29,South,187,4.0,7.0,75,0.00,,,0.00,,2013-01-08 10:52:00,
2013-01-08 13:02:00,43.0,36.0,30.29,South,187,4.0,7.0,75,0.00,,,0.00,,2013-01-08 11:02:00,
2013-01-08 13:11:00,43.0,36.0,30.29,South,187,4.0,7.0,75,0.00,,,0.00,,2013-01-08 11:11:00,
2013-01-08 13:22:00,43.0,36.0,30.29,South,187,4.0,7.0,75,0.00,,,0.00,,2013-01-08 11:22:00,
2013-01-08 13:32:00,43.0,36.0,30.29,South,187,4.0,7.0,75,0.00,,,0.00,,2013-01-08 11:32:00,
2013-01-08 13:42:00,43.0,36.0,30.29,South,187,4.0,7.0,75,0.00,,,0.00,,2013-01-08 11:42:00,
2013-01-08 13:52:00,43.0,36.0,30.29,South,187,4.0,7.0,75,0.00,,,0.00,,2013-01-08 11:52:00,
2013-01-08 14:02:00,38.0,34.0,30.28,SSE,166,3.0,7.0,86,0.00,,,0.00,,2013-01-08 12:02:00,
2013-01-08 14:11:00,38.0,34.0,30.28,SSE,166,3.0,7.0,86,0.00,,,0.00,,2013-01-08 12:11:00,
2013-01-08 14:22:00,41.0,36.0,30.28,NE,47,3.0,5.0,82,0.00,,,0.00,,2013-01-08 12:22:00,
2013-01-08 14:32:00,42.0,35.0,30.28,NE,38,3.0,6.0,75,0.00,,,0.00,,2013-01-08 12:32:00,
2013-01-08 14:42:00,42.0,35.0,30.28,NE,38,3.0,6.0,75,0.00,,,0.00,,2013-01-08 12:42:00,
2013-01-08 14:52:00,41.0,34.0,30.28,NNW,347,2.0,5.0,76,0.00,,,0.00,,2013-01-08 12:52:00,
2013-01-08 15:02:00,40.0,32.0,30.28,WNW,289,2.0,3.0,74,0.00,,,0.00,,2013-01-08 13:02:00,
2013-01-08 15:12:00,40.0,32.0,30.28,WNW,289,2.0,3.0,74,0.00,,,0.00,,2013-01-08 13:12:00,
2013-01-08 15:22:00,40.0,32.0,30.28,NNW,342,4.0,9.0,74,0.00,,,0.00,,2013-01-08 13:22:00,
2013-01-08 15:32:00,40.0,32.0,30.28,NW,305,3.0,6.0,72,0.00,,,0.00,,2013-01-08 13:32:00,
2013-01-08 15:42:00,40.0,32.0,30.28,NW,305,3.0,6.0,72,0.00,,,0.00,,2013-01-08 13:42:00,
2013-01-08 15:52:00,43.0,33.0,30.28,NE,49,3.0,5.0,68,0.00,,,0.00,,2013-01-08 13:52:00,
2013-01-08 16:02:00,45.0,32.0,30.28,SW,225,7.0,12.0,59,0.00,,,0.00,,2013-01-08 14:02:00,
2013-01-08 16:12:00,45.0,32.0,30.28,SW,225,7.0,12.0,59,0.00,,,0.00,,2013-01-08 14:12:00,
2013-01-08 16:22:00,48.0,33.0,30.28,WNW,293,2.0,4.0,55,0.00,,,0.00,,2013-01-08 14:22:00,
2013-01-08 16:32:00,45.0,29.0,30.12,SW,220,1.0,4.0,53,0.00,,,0.00,,2013-01-08 14:32:00,
2013-01-08 16:42:00,45.0,29.0,30.12,SW,220,1.0,4.0,53,0.00,,,0.00,,2013-01-08 14:42:00,
2013-01-08 16:52:00,42.0,29.0,30.13,ENE,63,5.0,8.0,59,0.00,,,0.00,,2013-01-08 14:52:00,
2013-01-08 17:02:00,42.0,30.0,30.13,NE,45,2.0,5.0,63,0.00,,,0.00,,2013-01-08 15:02:00,
2013-01-08 17:12:00,42.0,30.0,30.13,NE,45,2.0,5.0,63,0.00,,,0.00,,2013-01-08 15:12:00,
2013-01-08 17:22:00,41.0,29.0,30.13,West,265,1.0,3.0,62,0.00,,,0.00,,2013-01-08 15:22:00,
2013-01-08 17:32:00,41.0,30.0,30.13,West,265,1.0,3.0,64,0.00,,,0.00,,2013-01-08 15:32:00,
2013-01-08 17:42:00,41.0,30.0,30.13,West,265,1.0,3.0,64,0.00,,,0.00,,2013-01-08 15:42:00,
2013-01-08 17:52:00,40.0,28.0,30.13,NNW,344,3.0,6.0,63,0.00,,,0.00,,2013-01-08 15:52:00,
2013-01-08 18:02:00,40.0,29.0,30.13,NE,49,1.0,3.0,64,0.00,,,0.00,,2013-01-08 16:02:00,
2013-01-08 18:12:00,40.0,29.0,30.13,NE,49,1.0,3.0,64,0.00,,,0.00,,2013-01-08 16:12:00,
2013-01-08 18:22:00,40.0,29.0,30.14,NNE,25,1.0,4.0,64,0.00,,,0.00,,2013-01-08 16:22:00,
2013-01-08 18:33:00,40.0,28.0,30.14,NE,47,2.0,5.0,62,0.00,,,0.00,,2013-01-08 16:33:00,
2013-01-08 18:42:00,40.0,28.0,30.14,NE,47,2.0,5.0,62,0.00,,,0.00,,2013-01-08 16:42:00,
2013-01-08 18:52:00,39.0,28.0,30.14,NNW,333,1.0,3.0,64,0.00,,,0.00,,2013-01-08 16:52:00,
2013-01-08 19:02:00,39.0,27.0,30.14,NNE,31,1.0,4.0,63,0.00,,,0.00,,2013-01-08 17:02:00,
2013-01-08 19:12:00,39.0,27.0,30.14,NNE,31,1.0,4.0,63,0.00,,,0.00,,2013-01-08 17:12:00,
2013-01-08 19:22:00,39.0,28.0,30.15,NNW,337,2.0,4.0,64,0.00,,,0.00,,2013-01-08 17:22:00,
2013-01-08 19:33:00,39.0,27.0,30.15,NE,36,3.0,6.0,63,0.00,,,0.00,,2013-01-08 17:33:00,
2013-01-08 19:42:00,39.0,27.0,30.15,NE,36,3.0,6.0,63,0.00,,,0.00,,2013-01-08 17:42:00,
2013-01-08 19:53:00,39.0,28.0,30.15,North,349,0.0,2.0,64,0.00,,,0.00,,2013-01-08 17:53:00,
2013-01-08 20:03:00,39.0,28.0,30.15,NNE,24,1.0,4.0,65,0.00,,,0.00,,2013-01-08 18:03:00,
2013-01-08 20:12:00,39.0,28.0,30.15,NNE,24,1.0,4.0,65,0.00,,,0.00,,2013-01-08 18:12:00,
2013-01-08 20:22:00,39.0,26.0,30.15,NE,46,4.0,7.0,60,0.00,,,0.00,,2013-01-08 18:22:00,
2013-01-08 20:33:00,39.0,27.0,30.16,North,351,1.0,4.0,61,0.00,,,0.00,,2013-01-08 18:33:00,
2013-01-08 20:43:00,39.0,27.0,30.16,North,351,1.0,4.0,61,0.00,,,0.00,,2013-01-08 18:43:00,
2013-01-08 20:52:00,39.0,25.0,30.16,NNE,19,3.0,7.0,58,0.00,,,0.00,,2013-01-08 18:52:00,
2013-01-08 21:02:00,39.0,25.0,30.16,NE,43,2.0,6.0,57,0.00,,,0.00,,2013-01-08 19:02:00,
2013-01-08 21:12:00,39.0,25.0,30.16,NE,43,2.0,6.0,57,0.00,,,0.00,,2013-01-08 19:12:00,
2013-01-08 21:22:00,39.0,25.0,30.16,NE,52,2.0,6.0,57,0.00,,,0.00,,2013-01-08 19:22:00,
2013-01-08 21:32:00,39.0,25.0,30.16,ENE,62,2.0,4.0,57,0.00,,,0.00,,2013-01-08 19:32:00,
2013-01-08 21:42:00,39.0,25.0,30.16,ENE,62,2.0,4.0,57,0.00,,,0.00,,2013-01-08 19:42:00,
2013-01-08 21:52:00,38.0,25.0,30.16,NE,53,1.0,3.0,59,0.00,,,0.00,,2013-01-08 19:52:00,
2013-01-08 22:02:00,38.0,25.0,30.16,ENE,58,1.0,3.0,60,0.00,,,0.00,,2013-01-08 20:02:00,
2013-01-08 22:12:00,38.0,25.0,30.16,ENE,58,1.0,3.0,60,0.00,,,0.00,,2013-01-08 20:12:00,
2013-01-08 22:22:00,38.0,24.0,30.16,NE,53,1.0,3.0,57,0.00,,,0.00,,2013-01-08 20:22:00,
2013-01-08 22:32:00,38.0,23.0,30.15,SSW,205,1.0,2.0,55,0.00,,,0.00,,2013-01-08 20:32:00,
2013-01-08 22:43:00,38.0,23.0,30.15,SSW,205,1.0,2.0,55,0.00,,,0.00,,2013-01-08 20:43:00,
2013-01-08 22:53:00,38.0,23.0,30.15,ENE,75,1.0,2.0,54,0.00,,,0.00,,2013-01-08 20:53:00,
2013-01-08 23:02:00,38.0,22.0,30.16,ENE,76,2.0,4.0,53,0.00,,,0.00,,2013-01-08 21:02:00,
2013-01-08 23:12:00,38.0,22.0,30.16,ENE,76,2.0,4.0,53,0.00,,,0.00,,2013-01-08 21:12:00,
2013-01-08 23:22:00,38.0,22.0,30.15,ENE,70,2.0,4.0,52,0.00,,,0.00,,2013-01-08 21:22:00,
2013-01-08 23:32:00,38.0,23.0,30.15,ENE,58,1.0,3.0,55,0.00,,,0.00,,2013-01-08 21:32:00,
2013-01-08 23:42:00,38.0,23.0,30.15,ENE,58,1.0,3.0,55,0.00,,,0.00,,2013-01-08 21:42:00,
2013-01-08 23:52:00,38.0,24.0,30.15,West,259,0.0,2.0,57,0.00,,,0.00,,2013-01-08 21:52:00,